Starlink 6147

operational
NORAD ID: 57120 Int'l Des: 2023-090 Owner: SPXS Country: US Constellation: starlink
LEOCIRCULAR

About Starlink 6147

Description loading...

Live Position

Loading 3D Globe...

Upcoming Passes

Altitude History

Altitude vs Time

uPlot chart will show altitude changes over time

Two-Line Element Set

1 57120U 23090V 25345.53468313 .00001083 00000-0 95171-4 0 9990
2 57120 43.0039 33.5704 0000925 266.0138 94.0599 15.02543687137154
Epoch: Dec 11, 2025 • Age: 11 hours

Current Status

Altitude 568.4 km
Velocity 7.58 km/s
Sub-Earth Point -34.62°S, 174.12°W
Launch Date Jun 23, 2023
Age 2.4 years
Type internet

Technical Details

Classification Payload
Mass 305.00 kg
Dry Mass 290.00 kg
Total Mass 305.00 kg
Length 0.20 m
Diameter 2.80 m
Span 9.00 m
Shape Box + pan
Manufacturer SPXS
Bus Type Starlink
Phase Status In Orbit
Owner/State SPXS/US

Large Constellations

Loading constellations...